TimeCDT,TemperatureF,Dew PointF,Humidity,Sea Level PressureIn,VisibilityMPH,Wind Direction,Wind SpeedMPH,Gust SpeedMPH,PrecipitationIn,Events,Conditions,WindDirDegrees,DateUTC
12:15 AM,76.6,70.2,80,29.78,10.0,SSE,12.7,-,N/A,,Clear,150,2014-04-03 05:15:00
12:35 AM,76.6,70.3,81,29.78,10.0,SSE,15.0,18.4,N/A,,Clear,150,2014-04-03 05:35:00
12:55 AM,76.3,70.5,82,29.77,10.0,SE,16.1,20.7,N/A,,Clear,140,2014-04-03 05:55:00
1:15 AM,76.5,70.7,82,29.77,10.0,SSE,12.7,-,N/A,,Clear,150,2014-04-03 06:15:00
1:35 AM,76.5,70.2,81,29.78,10.0,SSE,10.4,-,N/A,,Clear,150,2014-04-03 06:35:00
1:55 AM,76.1,70.0,81,29.77,10.0,SSE,9.2,-,N/A,,Clear,150,2014-04-03 06:55:00
2:15 AM,75.6,70.0,83,29.76,10.0,SE,11.5,16.1,N/A,,Clear,140,2014-04-03 07:15:00
2:35 AM,75.2,70.0,84,29.75,10.0,SE,10.4,-,N/A,,Clear,140,2014-04-03 07:35:00
2:55 AM,75.2,70.0,84,29.74,7.0,SE,12.7,17.3,N/A,,Clear,140,2014-04-03 07:55:00
3:15 AM,75.0,70.2,85,29.73,7.0,SE,13.8,19.6,N/A,,Clear,140,2014-04-03 08:15:00
3:35 AM,74.8,69.8,84,29.73,7.0,SSE,12.7,-,N/A,,Clear,150,2014-04-03 08:35:00
3:55 AM,74.8,69.4,83,29.73,10.0,SSE,11.5,-,N/A,,Clear,150,2014-04-03 08:55:00
4:15 AM,74.8,69.4,83,29.74,7.0,SSE,9.2,-,N/A,,Scattered Clouds,160,2014-04-03 09:15:00
4:35 AM,75.2,69.8,83,29.74,7.0,SSE,9.2,-,N/A,,Overcast,150,2014-04-03 09:35:00
4:55 AM,75.4,69.8,83,29.74,7.0,SSE,10.4,-,N/A,,Overcast,150,2014-04-03 09:55:00
5:15 AM,75.6,69.8,82,29.74,7.0,SSE,10.4,-,N/A,,Overcast,150,2014-04-03 10:15:00
5:35 AM,75.6,69.6,82,29.73,7.0,SSE,8.1,-,N/A,,Overcast,150,2014-04-03 10:35:00
5:55 AM,75.4,69.4,82,29.73,7.0,SSE,10.4,-,N/A,,Overcast,150,2014-04-03 10:55:00
6:15 AM,75.2,69.4,82,29.73,7.0,SE,9.2,-,N/A,,Overcast,140,2014-04-03 11:15:00
6:35 AM,75.2,69.3,82,29.73,7.0,SSE,10.4,-,N/A,,Mostly Cloudy,150,2014-04-03 11:35:00
7:15 AM,75.4,69.4,82,29.74,7.0,SSE,10.4,-,N/A,,Overcast,150,2014-04-03 12:15:00
7:35 AM,75.7,69.4,81,29.75,7.0,SSE,11.5,-,N/A,,Overcast,160,2014-04-03 12:35:00
7:55 AM,75.6,69.4,81,29.75,7.0,SSE,11.5,18.4,N/A,,Mostly Cloudy,150,2014-04-03 12:55:00
8:15 AM,76.1,69.8,81,29.74,7.0,SSE,12.7,-,N/A,,Mostly Cloudy,150,2014-04-03 13:15:00
8:35 AM,76.8,69.8,79,29.74,7.0,SE,17.3,23.0,N/A,,Scattered Clouds,140,2014-04-03 13:35:00
8:55 AM,77.9,70.0,76,29.74,7.0,SSE,15.0,24.2,N/A,,Mostly Cloudy,150,2014-04-03 13:55:00
9:15 AM,78.4,70.3,76,29.75,7.0,SSE,16.1,24.2,N/A,,Overcast,160,2014-04-03 14:15:00
9:35 AM,78.4,70.3,76,29.76,7.0,South,16.1,21.9,N/A,,Overcast,170,2014-04-03 14:35:00
9:55 AM,78.8,70.5,76,29.76,7.0,South,12.7,23.0,N/A,,Overcast,170,2014-04-03 14:55:00
10:15 AM,79.2,70.7,75,29.76,7.0,SSE,10.4,19.6,N/A,,Overcast,160,2014-04-03 15:15:00
10:35 AM,79.7,70.7,74,29.76,7.0,South,13.8,24.2,N/A,,Overcast,170,2014-04-03 15:35:00
10:55 AM,80.6,71.1,73,29.76,7.0,South,12.7,-,N/A,,Overcast,170,2014-04-03 15:55:00
11:15 AM,81.9,71.1,70,29.75,7.0,SSE,20.7,25.3,N/A,,Overcast,160,2014-04-03 16:15:00
11:35 AM,83.1,71.1,67,29.74,7.0,SSE,18.4,26.5,N/A,,Mostly Cloudy,160,2014-04-03 16:35:00
11:55 AM,83.7,71.1,66,29.75,7.0,South,20.7,25.3,N/A,,Mostly Cloudy,180,2014-04-03 16:55:00
12:15 PM,84.4,70.7,63,29.74,7.0,South,13.8,27.6,N/A,,Overcast,170,2014-04-03 17:15:00
12:35 PM,86.2,70.7,60,29.73,10.0,South,19.6,23.0,N/A,,Overcast,180,2014-04-03 17:35:00
1:15 PM,88.9,70.3,54,29.72,10.0,South,11.5,-,N/A,,Mostly Cloudy,170,2014-04-03 18:15:00
1:35 PM,89.4,69.8,52,29.71,10.0,SSE,11.5,20.7,N/A,,Scattered Clouds,160,2014-04-03 18:35:00
1:55 PM,90.1,69.8,51,29.70,10.0,South,9.2,19.6,N/A,,Scattered Clouds,180,2014-04-03 18:55:00
2:15 PM,91.4,69.8,49,29.69,10.0,SSE,11.5,17.3,N/A,,Clear,160,2014-04-03 19:15:00
2:35 PM,92.7,70.2,48,29.68,10.0,South,10.4,16.1,N/A,,Clear,170,2014-04-03 19:35:00
2:55 PM,92.7,69.4,47,29.67,10.0,South,9.2,-,N/A,,Clear,180,2014-04-03 19:55:00
3:15 PM,94.1,69.8,45,29.66,10.0,SE,11.5,-,N/A,,Clear,140,2014-04-03 20:15:00
3:35 PM,94.6,69.4,44,29.65,10.0,SE,9.2,-,N/A,,Clear,130,2014-04-03 20:35:00
3:55 PM,95.2,70.0,44,29.64,10.0,SE,12.7,-,N/A,,Clear,140,2014-04-03 20:55:00
4:15 PM,95.7,68.5,41,29.64,10.0,SE,9.2,-,N/A,,Clear,130,2014-04-03 21:15:00
4:35 PM,96.4,66.7,38,29.64,10.0,South,8.1,-,N/A,,Clear,180,2014-04-03 21:35:00
4:55 PM,96.4,65.1,36,29.63,10.0,SSE,5.8,-,N/A,,Clear,150,2014-04-03 21:55:00
5:15 PM,96.6,66.2,37,29.62,10.0,SSE,4.6,9.2,N/A,,Clear,150,2014-04-03 22:15:00
5:35 PM,95.9,70.5,44,29.62,10.0,SSE,8.1,-,N/A,,Clear,160,2014-04-03 22:35:00
5:55 PM,94.6,70.0,45,29.63,10.0,SSE,8.1,-,N/A,,Clear,150,2014-04-03 22:55:00
6:15 PM,93.6,71.1,48,29.63,10.0,SSE,11.5,-,N/A,,Clear,150,2014-04-03 23:15:00
6:35 PM,93.0,71.1,49,29.64,10.0,SE,10.4,-,N/A,,Clear,140,2014-04-03 23:35:00
6:55 PM,90.9,71.6,53,29.65,10.0,SSE,11.5,-,N/A,,Clear,150,2014-04-03 23:55:00
7:15 PM,88.9,71.4,56,29.65,10.0,SSE,12.7,17.3,N/A,,Clear,150,2014-04-04 00:15:00
7:35 PM,87.3,71.4,59,29.65,7.0,SE,13.8,19.6,N/A,,Clear,140,2014-04-04 00:35:00
7:55 PM,85.1,71.6,64,29.66,7.0,SSE,12.7,-,N/A,,Clear,150,2014-04-04 00:55:00
8:15 PM,83.5,71.8,68,29.66,10.0,SSE,15.0,-,N/A,,Clear,150,2014-04-04 01:15:00
8:35 PM,82.4,72.0,71,29.67,10.0,SE,13.8,-,N/A,,Clear,140,2014-04-04 01:35:00
8:55 PM,81.3,71.8,73,29.69,10.0,SSE,13.8,18.4,N/A,,Clear,150,2014-04-04 01:55:00
9:15 PM,80.2,71.8,75,29.70,10.0,SSE,12.7,-,N/A,,Clear,150,2014-04-04 02:15:00
9:35 PM,79.0,71.8,78,29.71,7.0,SSE,9.2,-,N/A,,Clear,150,2014-04-04 02:35:00
10:55 PM,78.1,71.2,79,29.73,7.0,SSE,10.4,-,N/A,,Overcast,160,2014-04-04 03:55:00
11:15 PM,77.9,70.9,79,29.74,7.0,SSE,8.1,16.1,N/A,,Overcast,160,2014-04-04 04:15:00
11:35 PM,78.1,70.7,78,29.74,7.0,SSE,12.7,-,N/A,,Overcast,160,2014-04-04 04:35:00
11:55 PM,78.1,70.7,78,29.74,7.0,SSE,11.5,-,N/A,,Overcast,150,2014-04-04 04:55:00